Thunder radar more information blitzortung!


Löydät sääaseman tiedot myös:

European Weather Network

Finland Weather Exchange

Weather Underground

AWEKAS



Weather Underground säähistoriasivu

Päivittäin yhteenveto Tammikuu 13, 2017 Yksiköt:  Englantilaiset    Metriset   Molemmat
« Edellinen Päivä
Seuraava Päivä »
Päivittäin Viikoittain Kuukausittain Vuosittain Mukautettu
  Korkea: Matala: Keskiarvo:
Lämpötila: TemperatureC °F -2.2 °F -1.4 °F
Kastepiste: DewpointC °F -3.8 °F -2.6 °F
Kosteus: Humidity % 87 % 90 %
Tuulen nopeus: WindSpeedKMH mph 0.0 mph 0 mph
Tuulenpuuska: WindSpeedGustKMH mph - -
Tuuli:- - North
Ilmanpaine: PressurehPa in 980.6 in -
Sade: 0.0 in    
Historical Graphs
 
 
Taulukkotiedot Tammikuu 13, 2017
Aika Lämpötila Kastepiste Ilmanpaine Tuuli Tuulen nopeus Tuulenpuuska Kosteus Sademäärä (tunneittain)
TemperatureC °F DewpointC °F PressurehPa in Calm     Humidity % HourlyPrecipMM in
00:00 -1.8 °F -3.7 °F 980.9 in Calm     87 % 0.0 in
00:15 -1.9 °F -3.8 °F 980.6 in Calm     87 % 0.0 in
00:30 -1.9 °F -3.8 °F 980.9 in Calm     87 % 0.0 in
00:45 -1.9 °F -3.8 °F 980.6 in Calm     87 % 0.0 in
01:00 -1.9 °F -3.8 °F 980.6 in Calm     87 % 0.0 in
01:15 -2.0 °F -3.7 °F 980.6 in Calm     88 % 0.0 in
01:30 -2.0 °F -3.7 °F 980.6 in Calm     88 % 0.0 in
01:45 -2.0 °F -3.7 °F 980.6 in Calm     88 % 0.0 in
02:00 -2.0 °F -3.7 °F 980.9 in Calm     88 % 0.0 in
02:15 -2.0 °F -3.6 °F 980.9 in Calm     89 % 0.0 in
02:30 -2.1 °F -3.6 °F 980.9 in Calm     89 % 0.0 in
02:45 -2.1 °F -3.6 °F 980.9 in Calm     89 % 0.0 in
03:00 -2.1 °F -3.6 °F 980.9 in Calm     89 % 0.0 in
03:15 -2.1 °F -3.6 °F 980.6 in Calm     89 % 0.0 in
03:30 -2.1 °F -3.5 °F 980.6 in Calm     90 % 0.0 in
03:45 -2.2 °F -3.4 °F 980.6 in Calm     91 % 0.0 in
04:00 -2.2 °F -3.5 °F 980.6 in Calm     91 % 0.0 in
04:15 -2.2 °F -3.5 °F 980.6 in Calm     91 % 0.0 in
04:30 -2.2 °F -3.4 °F 980.6 in Calm     91 % 0.0 in
04:45 -2.2 °F -3.5 °F 980.6 in Calm     91 % 0.0 in
05:00 -2.2 °F -3.4 °F 980.9 in Calm     91 % 0.0 in
05:15 -2.2 °F -3.4 °F 980.6 in Calm     91 % 0.0 in
05:30 -2.1 °F -3.4 °F 980.6 in Calm     91 % 0.0 in
05:45 -2.1 °F -3.3 °F 980.6 in Calm     91 % 0.0 in
06:00 -2.1 °F -3.5 °F 980.6 in Calm     90 % 0.0 in
06:15 -2.0 °F -3.4 °F 980.9 in Calm     90 % 0.0 in
06:30 -2.0 °F -3.4 °F 980.9 in Calm     90 % 0.0 in
06:45 -2.0 °F -3.4 °F 980.9 in Calm     90 % 0.0 in
07:00 -1.9 °F -3.4 °F 980.9 in Calm     90 % 0.0 in
07:15 -1.9 °F -3.4 °F 980.6 in Calm     90 % 0.0 in
07:30 -1.9 °F -3.4 °F 980.6 in Calm     90 % 0.0 in
07:45 -1.9 °F -3.4 °F 980.6 in Calm     90 % 0.0 in
08:00 -1.9 °F -3.4 °F 980.6 in Calm     90 % 0.0 in
08:15 -1.9 °F -3.4 °F 980.9 in Calm     90 % 0.0 in
08:30 -1.9 °F -3.4 °F 980.9 in Calm     90 % 0.0 in
08:45 -1.9 °F -3.4 °F 981.3 in Calm     90 % 0.0 in
09:00 -1.9 °F -3.4 °F 981.3 in Calm     90 % 0.0 in
09:15 -1.9 °F -3.4 °F 981.3 in Calm     90 % 0.0 in
09:30 -1.9 °F -3.4 °F 981.3 in Calm     90 % 0.0 in
09:45 -1.9 °F -3.4 °F 981.6 in Calm     90 % 0.0 in
10:00 -1.9 °F -3.4 °F 981.6 in Calm     90 % 0.0 in
10:15 -1.9 °F -3.4 °F 981.6 in Calm     90 % 0.0 in
10:30 -1.9 °F -3.4 °F 981.6 in Calm     90 % 0.0 in
10:45 -1.9 °F -3.3 °F 981.6 in Calm     90 % 0.0 in
11:00 -1.8 °F -3.3 °F 981.9 in Calm     90 % 0.0 in
11:15 -1.8 °F -3.2 °F 981.9 in Calm     90 % 0.0 in
11:30 -1.7 °F -3.1 °F 981.9 in Calm     90 % 0.0 in
11:45 -1.7 °F -3.1 °F 981.9 in Calm     90 % 0.0 in
12:00 -1.6 °F -3.0 °F 981.9 in Calm     90 % 0.0 in
12:15 -1.4 °F -2.9 °F 981.9 in Calm     90 % 0.0 in
12:30 -1.5 °F -2.6 °F 981.9 in Calm     92 % 0.0 in
12:45 -1.5 °F -2.6 °F 982.3 in Calm     92 % 0.0 in
13:00 -1.5 °F -2.6 °F 982.3 in Calm     92 % 0.0 in
13:15 -1.4 °F -2.6 °F 982.3 in Calm     92 % 0.0 in
13:30 -1.4 °F -2.4 °F 982.3 in Calm     93 % 0.0 in
13:45 -1.3 °F -2.3 °F 982.3 in Calm     93 % 0.0 in
14:00 -1.3 °F -2.3 °F 982.3 in Calm     93 % 0.0 in
14:15 -1.2 °F -2.2 °F 982.3 in Calm     93 % 0.0 in
14:30 -1.2 °F -2.2 °F 982.6 in Calm     93 % 0.0 in
14:45 -1.2 °F -2.2 °F 982.6 in Calm     93 % 0.0 in
15:00 -1.1 °F -2.0 °F 982.6 in Calm     94 % 0.0 in
15:15 -1.1 °F -1.9 °F 982.6 in Calm     94 % 0.0 in
15:30 -1.0 °F -1.8 °F 983.0 in Calm     94 % 0.0 in
15:45 -1.0 °F -1.8 °F 983.0 in Calm     94 % 0.0 in
16:00 -1.0 °F -1.8 °F 983.0 in Calm     94 % 0.0 in
16:15 -0.9 °F -1.8 °F 983.3 in Calm     94 % 0.0 in
16:30 -0.8 °F -1.7 °F 983.3 in Calm     94 % 0.0 in
16:45 -0.8 °F -1.6 °F 983.3 in Calm     94 % 0.0 in
17:00 -0.7 °F -1.6 °F 983.6 in Calm     94 % 0.0 in
17:15 -0.6 °F -1.3 °F 984.0 in Calm     95 % 0.0 in
17:30 -0.5 °F -1.3 °F 984.0 in Calm     94 % 0.0 in
17:45 -0.4 °F -1.3 °F 984.0 in Calm     94 % 0.0 in
18:00 -0.4 °F -1.2 °F 984.3 in Calm     94 % 0.0 in
18:15 -0.4 °F -1.3 °F 984.3 in Calm     94 % 0.0 in
18:30 -0.4 °F -1.3 °F 984.3 in Calm     94 % 0.0 in
18:45 -0.4 °F -1.3 °F 984.3 in Calm     94 % 0.0 in
19:00 -0.4 °F -1.3 °F 984.6 in Calm     94 % 0.0 in
19:15 -0.4 °F -1.3 °F 984.6 in Calm     94 % 0.0 in
19:30 -0.5 °F -1.5 °F 984.6 in Calm     93 % 0.0 in
19:45 -0.5 °F -1.6 °F 984.6 in Calm     92 % 0.0 in
20:00 -0.4 °F -1.7 °F 985.0 in Calm     91 % 0.0 in
20:15 -0.4 °F -1.7 °F 985.0 in Calm     91 % 0.0 in
20:30 -0.6 °F -1.8 °F 985.0 in Calm     91 % 0.0 in
20:45 -0.6 °F -1.8 °F 985.0 in Calm     91 % 0.0 in
21:00 -0.6 °F -1.9 °F 985.0 in Calm     91 % 0.0 in
21:15 -0.7 °F -2.0 °F 985.3 in Calm     91 % 0.0 in
21:30 -0.7 °F -1.9 °F 985.3 in Calm     92 % 0.0 in
21:45 -0.8 °F -1.8 °F 985.3 in Calm     93 % 0.0 in
22:00 -0.8 °F -1.8 °F 985.3 in Calm     93 % 0.0 in
22:15 -0.8 °F -1.8 °F 985.3 in Calm     93 % 0.0 in
22:30 -0.8 °F -1.8 °F 985.7 in Calm     93 % 0.0 in
22:45 -0.8 °F -1.8 °F 986.0 in Calm     93 % 0.0 in
23:00 -0.7 °F -1.7 °F 986.0 in Calm     93 % 0.0 in
23:15 -0.7 °F -1.7 °F 986.3 in Calm     93 % 0.0 in
23:30 -0.8 °F -1.6 °F 986.7 in Calm     94 % 0.0 in
23:45 -0.8 °F -1.6 °F 986.7 in Calm     94 % 0.0 in
Esan sääasema
Terveisin Weather Underground - 2.75 mb

Alkuperäinen skripti  Jim McMurry - jmcmurry@mwt.net Sovitettu myös templatelle  Wim van der Kuil - Leuven-Template.eu

Laitteet joita käytämme:

Sääasema
Davis VP2

Sääasemaohjelma
Cumulus

Sääaseman tietokone
Asus EeePC

Palveluntarjoaja
Suncomet

Davis VP2

Cumulus

Asus EeePC

Suncomet